Location: Betra
(48.4113°N, 8.6634°E)
Time: 14:58:45
(UTC+00:00)

Aureole 3 - Pass Details

Date: 14 August 2024
Orbit: 375 x 1118 km, 82.5° (Epoch: 09 September)

Event Time Altitude Azimuth Distance (km) Brightness Sun altitude
Rises 01:06:09 0° 346° (NNW) 2,523 7.5 -23.8°
Reaches altitude 10° 01:08:23 10° 341° (NNW) 1,556 6.2 -23.6°
Enters shadow 01:10:06 26° 329° (NNW) 867 4.6 -23.5°
